Wind_Speed
3 2 2 2 1 1 1 3 4 3 2 2 4 5 5 6 6 6 7 9 10 11 11 12 13 15 17 19 21 23 24 26 28 30 31 32 33 33 34 34 35 37 38 40 42 44 46 48 49
6 6 6 5 4 4 4 4 4 5 6 7 7 8 8 9 10 10 10 11 11 12 14 16 18 20 22 24 26 28 30 32 34 36 38 39 40 41 41 41 42 42 42 42 43 44 45 47 49
12 11 10 10 10 10 9 9 10 9 9 10 10 10 10 10 10 10 11 12 14 16 19 21 24 26 28 30 33 35 37 39 40 42 44 46 47 48 49 49 50 50 49 49 48 48 47 48 48
15 14 14 13 13 12 12 12 12 12 12 11 10 9 10 10 11 12 14 16 19 21 24 27 29 32 34 36 38 41 43 45 47 49 50 52 54 55 56 57 58 58 57 57 56 55 54 53 52
14 14 14 13 14 14 14 14 14 13 12 10 9 9 10 13 14 16 19 21 24 27 29 32 35 37 40 42 44 47 49 51 53 55 57 59 61 63 64 65 66 66 66 65 64 63 62 61 59
15 15 16 16 16 16 15 13 11 9 8 8 10 11 13 16 18 21 24 26 29 32 34 37 39 42 44 47 49 52 54 57 59 62 64 66 68 70 72 73 74 74 74 74 72 71 69 68 66
17 17 17 16 15 13 11 10 8 8 8 10 12 14 16 19 22 25 28 31 33 36 38 40 43 45 48 51 54 56 59 62 65 68 70 73 75 77 78 79 80 81 81 81 80 79 77 75 72
16 15 15 13 11 10 9 8 9 9 10 13 15 17 20 23 26 29 31 33 36 38 41 44 46 49 52 55 59 62 64 67 70 72 75 77 79 80 82 83 84 84 85 85 84 83 82 80 78
12 11 10 9 8 8 9 9 11 13 14 16 18 21 24 26 29 30 33 35 38 41 44 47 50 53 56 59 62 65 68 71 74 76 77 79 80 82 83 85 86 87 88 88 89 88 87 86 84
8 7 6 6 6 7 10 12 14 16 17 19 22 24 26 28 30 32 35 38 41 44 47 50 53 56 59 62 65 68 71 74 76 78 79 81 83 85 87 88 90 92 93 94 95 95 94 93 91
4 4 5 7 8 10 12 14 16 18 20 22 24 26 28 30 32 35 37 41 44 47 50 53 56 59 62 65 68 71 74 76 79 81 82 84 86 88 91 92 93 94 95 96 98 99 99 99 98
5 7 9 11 12 13 15 16 18 20 22 24 26 28 30 32 34 37 40 44 47 50 53 56 59 63 66 69 72 74 77 79 81 84 86 88 90 92 93 94 93 91 91 91 91 92 94 97 99
9 11 13 14 15 16 18 18 20 22 24 26 28 30 32 35 37 40 43 46 49 53 56 59 62 66 69 72 75 78 81 83 86 89 91 93 93 93 91 89 87 85 84 83 82 83 84 86 89
13 14 15 16 17 18 19 20 22 23 25 27 29 31 34 36 38 41 44 48 51 55 58 61 65 68 71 75 78 81 85 87 90 93 93 93 91 89 86 84 82 80 78 77 75 75 75 77 79
16 16 17 17 17 18 19 21 22 24 26 27 29 32 34 37 40 44 47 50 53 56 60 63 67 71 75 78 82 85 88 90 92 93 92 90 87 84 82 80 77 74 71 69 67 66 67 68 71
17 17 17 17 17 19 20 21 23 24 25 27 30 32 35 39 43 46 50 52 55 58 62 66 70 74 77 81 85 88 90 92 92 90 88 85 83 81 78 74 70 66 62 59 57 55 56 58 62
17 17 17 18 18 20 21 22 23 24 26 28 31 34 37 42 45 49 52 54 57 60 64 68 72 77 80 83 87 89 91 91 88 86 84 82 80 77 73 68 63 58 54 52 50 49 49 49 53
18 18 18 19 19 20 21 23 24 25 27 29 32 36 40 44 47 50 53 56 59 63 67 71 75 79 82 85 87 89 89 87 85 83 82 81 78 73 68 62 58 54 52 51 51 50 49 48 48
17 17 18 18 19 19 20 23 25 26 28 31 35 38 42 46 49 52 54 57 61 66 70 74 77 80 83 85 87 88 86 84 82 81 80 78 74 69 64 60 57 56 55 55 55 54 52 51 50
15 16 17 18 19 20 21 23 26 27 30 34 37 41 44 47 50 53 56 59 64 68 72 76 79 81 84 86 88 87 84 82 81 80 78 74 70 65 62 60 60 60 60 60 60 60 57 54 53
15 16 18 19 20 22 23 23 27 29 33 36 39 42 45 48 51 54 57 61 65 70 73 77 79 82 85 87 87 84 81 80 79 77 74 70 66 64 63 63 64 65 66 66 66 65 62 58 56
16 17 19 21 22 24 26 25 29 31 35 38 41 43 46 49 52 55 59 63 67 71 74 77 80 83 86 87 85 82 80 79 78 76 72 67 65 65 66 67 69 70 71 71 70 68 66 62 58
17 19 21 22 23 25 27 28 31 34 36 39 42 44 47 50 53 56 60 64 68 72 75 77 81 83 85 85 83 80 79 79 77 74 69 66 65 67 69 71 73 73 72 71 69 67 65 63 59
19 20 21 23 24 26 29 31 33 35 37 39 42 45 48 51 54 57 61 65 69 72 75 78 81 83 84 82 80 79 78 77 75 72 68 66 67 69 72 73 72 68 64 61 60 59 58 58 56
22 23 24 25 26 28 30 31 34 35 37 41 44 47 49 52 55 58 62 66 70 73 75 78 80 82 82 80 79 78 77 76 74 71 69 69 70 73 75 72 67 60 54 47 43 42 45 47 48
24 26 29 30 30 29 30 31 33 36 39 42 45 47 49 52 55 59 62 66 70 73 75 78 80 81 81 79 77 76 75 74 72 71 70 72 74 77 75 69 63 56 48 40 32 27 28 32 37
24 27 29 31 32 33 33 35 37 40 41 43 46 48 50 53 56 59 63 67 70 73 75 77 79 80 79 77 75 74 73 72 71 71 71 73 76 78 72 65 58 50 45 37 28 18 13 18 26
26 28 31 34 37 38 38 39 42 42 43 44 46 48 51 53 56 60 64 67 70 73 75 77 79 79 77 75 73 72 71 70 71 71 72 74 77 77 69 61 54 47 42 36 28 18 6 7 16
26 28 31 33 36 40 42 42 44 45 46 46 48 49 51 53 56 60 64 67 70 72 74 76 78 77 75 73 71 70 69 69 70 71 72 74 76 75 67 59 51 44 39 34 29 21 10 1 8
25 28 31 34 36 39 42 44 47 48 49 49 49 50 52 54 57 60 64 67 70 72 74 75 76 75 73 71 69 68 67 68 69 70 71 73 75 75 67 57 49 41 35 31 26 20 13 4 3
Wind_Direction
85 102 124 114 148 239 255 289 303 303 321 29 43 46 43 38 31 22 18 17 9 360 349 340 331 325 319 314 310 307 305 303 301 299 297 295 293 290 288 285 282 279 276 274 271 268 265 262 260
64 68 67 65 62 64 68 58 61 69 69 62 55 50 46 42 37 30 18 10 357 345 334 327 321 316 313 310 307 305 303 301 299 298 296 294 292 290 287 285 282 280 277 275 273 270 268 265 262
75 76 68 70 72 76 79 77 74 70 65 61 58 54 48 40 30 15 2 349 337 328 322 318 315 312 310 308 307 305 303 301 299 297 295 294 292 290 288 285 283 280 278 275 273 270 268 266 264
78 77 76 74 75 72 72 70 71 73 72 65 55 45 32 19 4 351 340 330 324 319 316 314 312 311 310 308 307 305 304 302 300 298 296 294 292 290 288 286 284 282 279 276 274 271 268 266 264
80 78 77 77 78 79 80 79 77 74 65 49 31 16 4 352 344 334 326 321 319 317 315 314 313 312 311 310 308 306 305 303 301 299 297 295 292 290 288 286 284 282 280 278 275 272 269 266 263
86 83 87 87 88 88 86 80 74 64 47 25 4 350 343 335 329 324 321 319 318 317 316 316 315 314 312 311 309 307 305 303 302 300 298 296 294 292 290 288 286 283 281 278 276 273 270 267 264
93 92 91 90 88 84 76 64 51 31 11 353 343 334 329 324 323 322 321 320 319 318 318 317 316 314 312 311 310 308 307 305 303 301 299 297 295 293 290 288 286 284 281 278 276 273 270 267 264
91 90 86 80 72 63 46 31 13 357 342 335 328 323 321 321 321 320 320 319 319 319 318 317 316 315 314 313 311 309 307 306 304 301 299 297 295 292 290 288 285 283 280 278 275 272 270 267 263
85 81 75 63 46 24 7 353 343 335 328 324 320 319 319 320 320 320 321 321 321 320 319 318 317 316 314 312 310 309 307 305 304 301 299 297 294 292 290 287 285 282 279 276 274 271 268 265 262
76 67 53 32 9 347 337 331 327 323 321 319 318 318 320 321 321 322 323 322 322 321 320 318 316 314 312 311 310 309 307 305 303 301 299 297 295 292 290 288 285 282 280 277 274 270 267 264 261
39 14 355 342 333 327 323 322 320 318 317 318 318 319 321 323 324 325 324 323 322 321 319 316 315 314 313 312 311 310 308 306 304 302 300 298 296 294 292 290 287 285 282 279 276 273 269 265 262
333 326 324 321 320 319 319 318 318 318 318 319 320 322 324 325 326 325 324 323 321 319 317 316 316 316 315 314 312 311 309 307 306 304 303 301 299 297 295 293 291 288 285 281 278 274 271 267 264
311 312 314 314 315 315 317 319 319 320 321 322 323 324 325 326 326 325 323 322 320 318 317 317 318 317 316 315 314 313 312 311 310 308 307 305 303 301 299 296 293 290 287 283 279 274 270 266 263
310 310 311 312 313 314 316 318 320 321 322 322 323 324 324 324 323 322 321 321 320 319 319 319 320 319 318 317 316 316 315 314 313 311 309 308 306 304 302 299 297 294 291 287 282 277 271 265 260
311 312 312 312 312 313 316 317 319 320 321 321 321 321 321 321 321 322 321 321 320 320 321 322 322 321 320 320 319 318 317 316 314 313 312 310 309 307 305 303 300 297 293 289 285 280 274 267 260
314 314 313 314 314 316 318 317 318 319 319 319 319 319 319 320 321 322 322 322 322 322 323 324 324 323 323 322 321 320 319 317 316 315 314 313 311 309 307 305 302 298 294 291 287 283 278 270 262
319 318 318 319 319 318 318 316 317 318 318 317 317 317 318 320 321 322 323 323 324 325 326 326 326 325 325 324 323 322 320 319 319 318 316 315 313 311 309 305 302 298 294 291 288 286 282 276 268
324 323 323 322 320 317 316 315 316 317 317 317 316 317 318 320 322 323 325 326 327 328 328 328 328 327 327 325 324 323 322 322 321 320 319 317 315 312 309 305 301 296 293 290 288 286 285 282 275
327 325 322 319 317 316 317 316 316 318 317 316 317 318 320 321 324 326 327 329 330 330 330 330 329 329 327 326 325 324 324 323 322 322 321 319 317 313 309 305 300 295 292 289 287 284 282 281 279
330 325 321 319 319 320 321 320 318 319 318 318 318 320 322 324 326 328 330 331 332 332 332 331 330 329 328 327 326 326 326 326 325 324 323 321 317 314 309 305 300 295 291 288 285 282 280 277 276
333 330 328 327 326 324 324 324 320 321 320 320 322 324 326 328 329 331 332 333 334 334 333 332 331 330 329 328 328 328 328 327 327 326 325 322 319 315 311 306 302 297 292 287 283 279 276 273 271
341 338 335 333 331 329 328 328 323 324 323 324 326 328 329 331 332 333 334 335 335 335 334 333 332 331 331 330 330 330 330 330 330 329 328 325 322 318 314 310 305 299 294 288 282 277 273 269 266
346 342 338 336 335 332 328 329 327 328 327 328 330 331 333 334 334 334 335 336 336 335 334 334 333 333 332 332 332 333 333 333 333 332 331 328 326 322 318 314 309 303 296 290 282 276 270 265 261
350 346 343 341 339 338 336 334 332 333 332 332 333 335 335 335 334 334 336 337 337 336 335 335 335 334 334 334 334 334 335 335 335 335 334 332 330 328 325 321 316 311 304 295 285 275 267 261 255
356 353 352 352 351 349 344 340 336 336 336 336 337 338 336 335 334 335 337 338 338 337 337 337 336 336 335 336 336 337 337 338 339 338 338 337 336 334 332 330 328 325 320 311 296 280 265 256 249
5 1 359 358 357 356 350 345 342 341 341 340 340 338 337 336 336 337 338 339 338 338 338 338 338 337 337 338 338 339 340 341 342 342 342 342 342 342 340 340 339 338 336 331 318 295 267 250 240
13 9 4 360 359 1 358 351 350 348 345 342 340 339 337 337 336 338 339 340 340 340 340 340 339 339 339 340 341 342 343 344 345 346 346 347 347 347 347 346 347 349 351 351 345 328 280 241 230
16 12 8 5 2 2 3 356 355 350 346 343 341 340 339 337 337 339 340 341 341 341 341 341 341 341 341 342 343 345 346 347 349 350 350 351 352 352 351 350 352 356 1 6 8 9 359 226 221
17 14 11 8 6 3 2 358 356 352 348 345 343 341 339 338 339 340 342 342 342 342 343 343 342 342 343 344 345 347 348 350 352 353 353 354 355 356 354 354 356 1 8 15 20 25 34 103 211
15 13 11 9 8 4 3 359 357 355 351 348 345 343 341 340 340 342 343 343 344 344 344 344 344 344 345 346 347 349 350 352 354 355 356 358 358 359 358 356 358 2 7 14 18 24 30 32 222
Height
5862 5863 5865 5866 5867 5867 5867 5868 5868 5869 5870 5870 5869 5869 5869 5869 5869 5870 5868 5865 5865 5864 5863 5862 5861 5860 5858 5857 5855 5854 5852 5850 5849 5847 5845 5844 5842 5840 5839 5838 5837 5836 5836 5835 5835 5835 5835 5836 5836
5864 5865 5867 5868 5867 5867 5869 5869 5869 5870 5871 5870 5870 5869 5869 5868 5867 5867 5866 5865 5864 5862 5861 5860 5858 5857 5855 5853 5851 5849 5847 5845 5843 5841 5838 5836 5834 5832 5831 5830 5828 5827 5827 5826 5826 5826 5825 5825 5826
5867 5868 5869 5868 5868 5869 5870 5870 5871 5871 5871 5870 5870 5870 5869 5869 5868 5867 5865 5864 5862 5861 5859 5857 5855 5853 5851 5849 5846 5844 5841 5838 5836 5833 5830 5827 5824 5822 5821 5819 5817 5816 5816 5816 5815 5815 5815 5815 5815
5870 5870 5870 5870 5869 5870 5871 5871 5871 5871 5871 5871 5870 5870 5869 5868 5867 5866 5864 5863 5861 5859 5857 5854 5851 5848 5846 5843 5839 5836 5833 5830 5826 5823 5820 5817 5813 5811 5808 5806 5804 5803 5802 5802 5802 5802 5803 5803 5804
5871 5871 5871 5870 5871 5871 5871 5872 5872 5872 5871 5871 5870 5869 5868 5867 5865 5864 5862 5860 5858 5855 5853 5849 5846 5842 5838 5835 5831 5827 5823 5819 5815 5811 5807 5804 5800 5797 5794 5791 5789 5787 5786 5785 5785 5786 5787 5788 5790
5873 5872 5872 5872 5873 5873 5873 5873 5873 5873 5872 5871 5869 5868 5866 5865 5863 5861 5859 5857 5854 5851 5847 5843 5839 5835 5831 5826 5822 5818 5813 5808 5803 5799 5794 5789 5784 5780 5776 5773 5770 5768 5767 5766 5766 5766 5768 5770 5772
5875 5875 5874 5874 5875 5875 5875 5874 5874 5873 5871 5870 5868 5867 5865 5863 5861 5858 5856 5852 5849 5845 5841 5837 5832 5828 5823 5818 5812 5807 5801 5796 5790 5784 5779 5773 5767 5762 5757 5753 5750 5747 5745 5744 5743 5744 5746 5749 5751
5878 5878 5876 5876 5876 5876 5876 5874 5873 5872 5871 5869 5867 5865 5863 5861 5858 5855 5852 5848 5844 5839 5835 5830 5825 5819 5813 5807 5801 5795 5789 5782 5776 5769 5763 5756 5749 5743 5737 5732 5727 5724 5721 5719 5718 5718 5720 5724 5727
5880 5881 5878 5878 5878 5877 5875 5874 5873 5871 5869 5867 5865 5863 5861 5858 5854 5851 5847 5843 5839 5834 5828 5822 5816 5810 5804 5797 5791 5783 5776 5768 5761 5753 5745 5737 5730 5723 5716 5709 5703 5698 5695 5692 5691 5691 5693 5696 5701
5882 5881 5880 5880 5879 5877 5876 5874 5872 5870 5868 5865 5863 5860 5857 5854 5850 5847 5842 5838 5832 5826 5820 5814 5808 5802 5795 5787 5779 5771 5762 5753 5744 5735 5726 5717 5708 5700 5692 5684 5677 5671 5666 5663 5661 5661 5663 5666 5671
5883 5882 5881 5880 5878 5877 5875 5873 5871 5869 5866 5864 5861 5857 5854 5850 5846 5842 5837 5831 5826 5819 5813 5806 5799 5792 5784 5775 5766 5757 5747 5737 5727 5716 5706 5695 5685 5675 5665 5656 5649 5642 5636 5631 5628 5627 5629 5633 5638
5883 5882 5881 5879 5877 5876 5874 5872 5869 5867 5864 5861 5857 5853 5850 5845 5841 5836 5831 5825 5819 5812 5805 5797 5789 5780 5771 5762 5752 5741 5730 5719 5707 5695 5683 5672 5660 5648 5637 5627 5619 5611 5605 5600 5596 5594 5595 5597 5602
5883 5881 5879 5877 5875 5873 5871 5869 5867 5864 5860 5857 5853 5849 5845 5840 5835 5831 5825 5819 5812 5805 5796 5788 5779 5769 5759 5747 5736 5724 5711 5698 5685 5671 5658 5645 5632 5620 5609 5598 5589 5581 5574 5569 5566 5563 5563 5564 5568
5882 5879 5877 5875 5873 5871 5869 5866 5864 5860 5857 5853 5849 5845 5840 5836 5831 5826 5820 5813 5805 5796 5787 5777 5767 5756 5744 5732 5718 5705 5690 5676 5661 5647 5632 5618 5605 5593 5581 5571 5561 5553 5546 5540 5536 5534 5534 5535 5537
5879 5878 5876 5873 5871 5869 5867 5864 5861 5857 5854 5850 5845 5841 5836 5831 5825 5820 5813 5805 5796 5787 5777 5766 5755 5742 5729 5715 5700 5685 5670 5655 5640 5625 5609 5595 5581 5568 5557 5546 5537 5528 5521 5515 5511 5508 5506 5507 5509
5877 5875 5873 5871 5868 5865 5865 5861 5858 5854 5850 5846 5842 5837 5831 5825 5819 5813 5805 5796 5787 5777 5766 5754 5741 5728 5713 5698 5682 5666 5651 5635 5619 5603 5588 5573 5559 5546 5535 5524 5515 5507 5500 5494 5490 5486 5484 5482 5483
5875 5872 5870 5868 5865 5862 5860 5858 5855 5851 5847 5842 5838 5832 5826 5820 5813 5806 5797 5787 5777 5766 5755 5742 5728 5713 5698 5682 5665 5649 5632 5615 5598 5582 5567 5552 5538 5525 5514 5504 5495 5488 5482 5476 5472 5468 5465 5463 5462
5872 5869 5867 5865 5863 5860 5858 5855 5852 5848 5843 5838 5833 5827 5821 5814 5807 5798 5788 5778 5767 5756 5743 5729 5715 5699 5683 5667 5651 5633 5615 5597 5580 5563 5548 5533 5519 5506 5495 5486 5477 5470 5465 5460 5455 5451 5448 5445 5443
5870 5868 5866 5864 5861 5859 5856 5852 5848 5844 5839 5834 5828 5822 5816 5808 5799 5789 5779 5768 5757 5745 5731 5717 5701 5686 5671 5655 5638 5620 5602 5583 5566 5548 5531 5515 5500 5488 5477 5468 5460 5453 5448 5442 5438 5434 5431 5428 5425
5869 5867 5864 5862 5859 5856 5853 5849 5844 5840 5835 5830 5823 5817 5809 5801 5791 5781 5771 5759 5747 5734 5720 5704 5689 5673 5657 5640 5621 5603 5585 5567 5550 5532 5515 5498 5484 5471 5460 5451 5443 5435 5428 5423 5417 5413 5411 5410 5407
5869 5866 5863 5860 5857 5853 5850 5847 5841 5836 5830 5824 5818 5810 5802 5793 5783 5773 5762 5751 5738 5724 5709 5693 5678 5661 5643 5625 5606 5589 5572 5554 5537 5520 5503 5486 5470 5456 5444 5434 5423 5414 5406 5399 5394 5390 5388 5389 5389
5867 5864 5861 5857 5854 5850 5846 5843 5837 5832 5825 5818 5811 5804 5795 5786 5775 5765 5754 5742 5729 5714 5698 5683 5666 5648 5629 5610 5591 5574 5557 5541 5523 5505 5488 5472 5456 5441 5428 5414 5401 5388 5378 5370 5365 5362 5361 5364 5368
5866 5863 5859 5855 5851 5847 5842 5838 5833 5826 5819 5812 5805 5797 5788 5778 5768 5758 5746 5734 5720 5704 5688 5672 5654 5635 5616 5597 5579 5561 5544 5526 5508 5491 5475 5460 5444 5427 5410 5394 5376 5360 5347 5337 5331 5330 5331 5335 5342
5864 5862 5858 5854 5849 5845 5838 5832 5827 5820 5813 5806 5799 5790 5781 5771 5761 5750 5738 5725 5711 5695 5678 5661 5643 5624 5605 5586 5568 5550 5533 5515 5498 5481 5464 5448 5432 5413 5392 5371 5350 5331 5316 5305 5299 5298 5302 5307 5316
5862 5859 5856 5851 5846 5841 5834 5828 5823 5816 5808 5800 5792 5784 5775 5765 5754 5743 5731 5717 5702 5686 5669 5651 5633 5615 5596 5577 5558 5540 5522 5504 5485 5468 5452 5435 5418 5398 5375 5351 5329 5309 5293 5281 5273 5272 5276 5284 5294
5860 5856 5852 5847 5842 5838 5832 5825 5820 5811 5803 5794 5786 5778 5769 5758 5748 5736 5724 5710 5694 5677 5660 5642 5624 5606 5587 5568 5550 5531 5513 5495 5476 5458 5440 5422 5403 5381 5357 5335 5314 5296 5281 5268 5260 5257 5260 5268 5278
5860 5855 5850 5845 5840 5835 5828 5821 5814 5806 5798 5790 5781 5772 5762 5752 5741 5729 5717 5702 5686 5669 5652 5634 5616 5597 5579 5560 5542 5524 5506 5488 5470 5452 5433 5413 5392 5370 5346 5327 5308 5292 5277 5265 5256 5252 5254 5261 5270
5858 5854 5849 5842 5835 5830 5825 5817 5811 5802 5794 5786 5776 5767 5756 5746 5735 5723 5709 5694 5678 5661 5644 5626 5608 5589 5571 5553 5535 5517 5500 5482 5465 5446 5428 5408 5386 5364 5342 5324 5307 5293 5280 5268 5260 5255 5256 5260 5267
5858 5853 5847 5842 5835 5827 5821 5817 5809 5799 5790 5781 5771 5761 5751 5740 5728 5716 5702 5687 5670 5653 5636 5619 5601 5582 5564 5547 5530 5513 5496 5478 5461 5442 5423 5403 5383 5361 5340 5323 5308 5296 5285 5276 5269 5264 5263 5265 5268
5855 5851 5846 5842 5835 5827 5820 5816 5805 5796 5785 5776 5766 5756 5745 5734 5722 5709 5695 5680 5664 5647 5630 5613 5595 5577 5560 5542 5526 5509 5492 5476 5458 5440 5421 5402 5381 5361 5341 5324 5310 5300 5291 5283 5277 5273 5271 5270 5271